Tracking 17884 objects as of 3-December-2016
HD Live streaming from Space Station
objects crossing your sky now

METEOSAT 3

Track METEOSAT 3 now!
METEOSAT 3 is classified as:


NORAD ID: 19215
Int'l Code: 1988-051A
Perigee: 36,717.3 km
Apogee: 36,786.6 km
Inclination: 16.0 °
Period: 1,485.3 minutes
Semi major axis: 43122 km
RCS: 4.1367 m2 (large)
Launch date: June 15, 1988
Source: European Space Agency (ESA)
Launch site: FRENCH GUIANA (FRGUI)
Your satellite tracking list
Your tracking list is empty





NASA's NSSDC Master Catalog

Two Line Element Set (TLE):
1 19215U 88051A   16337.87472633 -.00000162 +00000-0 +00000-0 0  9990
2 19215 016.0470 010.7639 0008032 261.2738 259.0765 00.96948221089637
Source of the keplerian elements: AFSPC